Location: Poughquag
(41.6090°N, 73.6820°W)
Time: 14:38:33
(UTC-04:00)

N. Korean satellite - Visible Passes

Search period start: 25 September 2020 00:00
Search period end: 05 October 2020 00:00
Orbit: 455 x 503 km, 97.2° (Epoch: 25 September)

Date Brightness Start Highest point End Pass type
(mag) Time Alt. Az. Time Alt. Az. Time Alt. Az.
25 Sep 8.3 06:04:42 10° NNE 06:08:08 38° E 06:11:29 10° SSE visible
26 Sep 9.7 05:39:23 10° NE 05:41:59 18° E 05:44:32 10° SE visible
28 Sep 7.2 06:19:50 10° NNE 06:23:26 63° E 06:26:57 10° S visible
29 Sep 8.9 05:54:11 10° NE 05:57:20 28° E 06:00:25 10° SSE visible
30 Sep 9.9 05:29:16 10° ENE 05:31:07 14° E 05:32:58 10° ESE visible
02 Oct 7.9 06:09:10 10° NNE 06:12:37 44° E 06:15:59 10° S visible
03 Oct 9.5 05:43:43 10° NE 05:46:27 20° E 05:49:08 10° SE visible
